Regional Weather Roundup
Issued by NWS

Home | Current Version | Previous Version | Text Only | Print | Product List | Glossary On
Versions: 1 2 3 4 5 6 7 8 9 10 11 12 13 14 15 16 17 18 19 20 21 22 23 24 25 26 27 28 29 30 31 32 33 34 35 36 37 38 39 40 41 42 43 44 45 46 47 48 49 50
000
ASUS43 KMKX 201900
RWRWI

WISCONSIN REGIONAL WEATHER ROUNDUP
NATIONAL WEATHER SERVICE MILWAUKEE/SULLIVAN WI
200 PM CDT SUN MAY 20 2018

NOTE: "FAIR" INDICATES FEW OR NO CLOUDS BELOW 12,000 FEET WITH NO
SIGNIFICANT WEATHER AND/OR OBSTRUCTIONS TO VISIBILITY.

WIZ001-002-006>008-014>016-023>028-202000-
NORTHWEST WISCONSIN

CITY           SKY/WX    TMP DP  RH WIND       PRES   REMARKS
SUPERIOR ARPT  FAIR      62  33  32 NE6       30.27F
ASHLAND        FAIR      64  28  25 NE8       30.26F
HAYWARD        FAIR      67  26  21 CALM      30.23F
SIREN          FAIR      67  25  19 N3        30.24F
CUMBERLAND     FAIR      63  28  27 NE7       30.24F
RICE LAKE      FAIR      65  23  20 SE10      30.25S
CHETEK         FAIR      65  31  28 E6        30.24F
LADYSMITH      FAIR      65  27  23 MISG      30.25F
EAU CLAIRE     NOT AVBL
MENOMONIE      FAIR      67  32  27 E9        30.22F
NEW RICHMOND   FAIR      65  23  20 SE6       30.23F
OSCEOLA        FAIR      67  23  19 E6        30.26F
$$

WIZ003>005-009-010-017-018-202000-
NORTH CENTRAL WISCONSIN

CITY           SKY/WX    TMP DP  RH WIND       PRES   REMARKS
MANITOWISH WTR FAIR      64  29  26 E7        30.24F
ARBOR VITAE    FAIR      64  26  23 CALM      30.23F
WOODRUFF       FAIR      64  26  23 CALM      30.23F
RHINELANDER    FAIR      66  25  21 VRB6      30.24F
EAGLE RIVER    FAIR      63  22  21 CALM      30.24S
LAND O LAKES   FAIR      65  26  23 NE3       30.25F
PHILLIPS       FAIR      64  29  27 CALM      30.23F
TOMAHAWK       FAIR      63  28  26 E3        30.24F
MEDFORD        FAIR      62  30  30 CALM      30.23F
MERRILL        FAIR      64  29  26 E3        30.24S
$$

WIZ029-030-035-036-043>047-202000-
CENTRAL WISCONSIN

CITY           SKY/WX    TMP DP  RH WIND       PRES   REMARKS
WAUSAU         FAIR      65  29  25 CALM      30.21F
MOSINEE        MOSUNNY   64  28  25 NE3       30.24S
MARSHFIELD     FAIR      65  39  38 E6        30.21F
STEVENS POINT  NOT AVBL
WAUPACA        FAIR      65  41  41 E7        30.24S
WAUTOMA        PTSUNNY   59  47  64 SE8       30.24F
WISC RAPIDS    FAIR      68  40  35 E8        30.22F
CAMP DOUGLAS   NOT AVBL
$$

WIZ011>013-019>022-031-037>040-048>050-202000-
NORTHEAST WISCONSIN

CITY           SKY/WX    TMP DP  RH WIND       PRES   REMARKS
ANTIGO         FAIR      61  28  28 N3        30.24S
SHAWANO        FAIR      65  32  28 E7        30.24S
OCONTO         FAIR      57  28  32 E12       30.25F
STURGEON BAY   FAIR      55  35  47 NW7       30.26F
GREEN BAY      FAIR      59  29  31 NE13G23   30.25S
MANITOWOC      FAIR      54  42  64 N5        30.26R
APPLETON       MOSUNNY   61  36  39 E9        30.23S
CLINTONVILLE   FAIR      63  29  27 N3        30.24S
OSHKOSH        FAIR      57  45  64 E7        30.24S
$$

WIZ032>034-041-042-053>061-202000-
SOUTHWEST WISCONSIN

CITY           SKY/WX    TMP DP  RH WIND       PRES   REMARKS
LA CROSSE      CLOUDY    53  49  86 E6        30.23S
SPARTA         CLOUDY    55  47  75 E7        30.24F
VIROQUA        CLOUDY    51  49  93 NE9       30.22F
BOSCOBEL       CLOUDY    56  49  77 E7        30.21F
PRAIRIE DU CHI CLOUDY    54  49  85 NE9       30.20F
PLATTEVILLE    CLOUDY    54  53  96 NE12      30.20F
$$

WIZ056-057-062-063-064-067-068-202000-
SOUTH CENTRAL WISCONSIN

CITY           SKY/WX    TMP DP  RH WIND       PRES   REMARKS
REEDSBURG      CLOUDY    53  46  78 E5        30.24S
BARABOO/DELLS  CLOUDY    52  45  75 E7        30.24S
LONE ROCK      CLOUDY    55  49  80 NE12      30.22S
MINERAL POINT  CLOUDY    54  54 100 NE12      30.20S
MADISON        CLOUDY    53  48  83 NE10      30.22S
MIDDLETON      CLOUDY    53  48  84 NE8       30.23S
WATERTOWN      CLOUDY    52  47  84 NE8       30.23F
MONROE         CLOUDY    54  50  87 NE13      30.20S
JANESVILLE     NOT AVBL
$$

WIZ051-052-058>065-066-070>072-202000-
SOUTHEAST WISCONSIN

CITY           SKY/WX    TMP DP  RH WIND       PRES   REMARKS
MILWAUKEE      CLOUDY    46  40  79 N17G24    30.25S
WAUKESHA       CLOUDY    48  43  81 N7        30.25S
MILWAUKEE/TIMM CLOUDY    46  37  71 NE7       30.26S
RACINE         CLOUDY    45  40  82 N16G25    30.26S
BURLINGTON     CLOUDY    49  44  83 NE9       30.23S
KENOSHA        PTSUNNY   49  42  77 NE13G21   30.23F
FOND DU LAC    CLOUDY    56  47  71 NE8       30.24S
SHEBOYGAN      CLOUDY    51  43  74 NE12      30.25R
WEST BEND      CLOUDY    52  45  76 NE7       30.25R
JUNEAU         CLOUDY    52  45  75 NE3       30.25S
$$

LSZ147-162-202000-
LAKE SUPERIOR

STATION/POSITION TIME  TEMP    WIND        PRES    WAVE
                       AIR SEA DIR/SP/G            HT/PER
                 (UTC) (F)     (DEG/KT/KT) (MB)    (FT/S)
W MID LAKE BUOY  1750   39 36  220/  8/ 10 1025.9F   1
DEVILS ISLAND    1800   48     230/  6/  8 1026.0F
SAXON HARBOR     1840   47      40/  4/  5 1024.7F
$$

LMZ867-665-643>646-202000-
LAKE MICHIGAN

STATION/POSITION TIME  TEMP    WIND        PRES    WAVE
                       AIR SEA DIR/SP/G            HT/PER
                 (UTC) (F)     (DEG/KT/KT) (MB)    (FT/S)
NORTHPORT PIER   1840   47                 1024.7S
KEWAUNEE LAKESHO 1830   48      60/  8/ 11 1024.0R
SHEBOYGAN LAKESH 1800   42      30/ 16/ 19 1024.8F
PORT WASHINGTON  1830   47      50/ 12/ 15 1025.4R
MILWAUKEE LAKESH 1850   43      20/ 13/ 14   N/A
KENOSHA   LAKESH 1800   43                 1023.7
$$

TC  - TEMPERATURE IN CELSIUS
VSB - VISIBILITY IN STATUTE MILES
WCI - WIND CHILL INDEX
HX  - HEAT INDEX





USA.gov is the U.S. government's official web portal to all federal, state and local government web resources and services.